www.pogodaiklimat.ru

Погода и климат >> Архив погоды >> Австралия >> Marree Aero


ПОГОДА в Marree Aero

  • Прогноз погоды в Marree Aero
  • Монитор погоды в Marree Aero
  • Климат города

АРХИВ ПОГОДЫ в Marree Aero

Время (UTC), дата Ветер
(напр.,м/с)
 
Видим.   Явления Облачность Т
(С)
Тd
(С)
f
(%)
Тe
(С)
Тes
(С)
Комфортность P
(гПа)
Po
(гПа)
Тmin
(С)
Tmax
(С)
R
(мм)
R24
(мм)
S
(см)
22 10.11 ЮВ 4 н/о н/о +22.3 -3.9 17 +21 +21 комфорт 1017.5 1011.7
23 10.11 В 3 н/о н/о +26.5 -5.2 12 +24 +24 комфорт 1017.6 1011.8
00 11.11 СВ 6 н/о н/о +29.7 -6.5 9 +26 +26 жарко 1017.5 1011.7
02 11.11 В 6 н/о н/о +31.9 -6.4 8 +28 +28 жарко 1016.2 1010.4
01 11.11 СВ 6 н/о н/о +31.0 -7.1 8 +27 +27 жарко 1017.1 1011.3
03 11.11 СВ 7 н/о н/о +31.8 -6.5 8 +28 +28 жарко 1015.4 1009.6
04 11.11 В 7 н/о н/о +33.4 -7.0 7 +29 +29 жарко 1014.6 1008.8
05 11.11 В 6 н/о н/о +33.0 -7.3 7 +29 +29 жарко 1014.1 1008.3
06 11.11 В 6 н/о н/о +32.5 -7.7 7 +28 +28 жарко 1013.3 1007.5
08 11.11 СВ 6 н/о н/о +32.5 -6.0 8 +28 +28 жарко 1012.8 1007.0
07 11.11 В 5 н/о н/о +32.7 -5.8 8 +29 +29 жарко 1013.0 1007.2
09 11.11 СВ 5 н/о н/о +31.6 -6.6 8 +28 +28 жарко 1013.4 1007.6
10 11.11 СВ 4 н/о н/о +29.3 -6.8 9 +26 +26 жарко 1014.0 1008.2
11 11.11 В 4 н/о н/о +26.2 -6.5 11 +23 +23 комфорт 1014.4 1008.6
12 11.11 СВ 5 н/о н/о +25.8 -5.7 12 +23 +23 комфорт 1014.5 1008.7
14 11.11 В 3 н/о н/о +22.7 -5.2 15 +21 +21 комфорт 1014.3 1008.5
13 11.11 В 4 н/о н/о +23.9 -5.2 14 +22 +22 комфорт 1014.6 1008.8
15 11.11 ЮВ 4 н/о н/о +20.7 -5.2 17 +20 +20 1013.6 1007.8
16 11.11 ЮВ 5 н/о н/о +20.9 -4.3 18 +20 +20 1012.9 1007.1
17 11.11 Ю 5 н/о н/о +20.6 -4.5 18 +20 +20 1012.3 1006.5
18 11.11 ЮВ 4 н/о н/о +20.6 -4.5 18 +20 +20 1012.0 1006.2
20 11.11 В 2 н/о н/о +20.8 -3.6 19 +21 +21 комфорт 1012.8 1007.0
19 11.11 ЮВ 4 н/о н/о +20.4 -4.0 19 +20 +20 1012.1 1006.3
21 11.11 В 3 н/о н/о +22.8 -2.7 18 +21 +21 комфорт 1013.1 1007.3
22 11.11 СВ 7 н/о н/о +27.7 -4.3 12 +25 +25 комфорт 1013.2 1007.4
23 11.11 СВ 8 н/о н/о +30.7 -4.4 10 +27 +27 жарко 1013.3 1007.5
00 12.11 СВ 8 н/о н/о +33.5 -5.2 8 +29 +29 жарко 1013.0 1007.2
02 12.11 С 6 н/о н/о +36.0 -3.4 8 +32 +32 жарко 1011.8 1006.0
01 12.11 СВ 7 н/о н/о +34.6 -6.2 7 +30 +30 жарко 1012.6 1006.8
03 12.11 С 6 н/о н/о +38.5 -1.6 8 +35 +35 очень
жарко
1010.9 1005.1
04 12.11 СЗ 6 н/о н/о +37.1 -2.6 8 +33 +33 жарко 1010.0 1004.2
05 12.11 С 8 н/о н/о +36.9 -1.1 9 +33 +33 жарко 1009.1 1003.3
06 12.11 СЗ 7 н/о н/о +37.0 -2.7 8 +33 +33 жарко 1008.7 1002.9
08 12.11 СЗ 6 н/о н/о +35.3 +0.4 11 +32 +32 жарко 1008.7 1002.9
07 12.11 СЗ 7 н/о н/о +35.6 -0.7 10 +32 +32 жарко 1008.8 1003.0
09 12.11 СЗ 7 н/о н/о +34.7 -0.1 11 +31 +31 жарко 1009.4 1003.6
10 12.11 ЮЗ 3 н/о н/о +33.3 -1.1 11 +30 +30 жарко 1009.9 1004.1
11 12.11 З 6 н/о н/о +33.0 +0.9 13 +30 +30 жарко 1009.8 1004.0
12 12.11 ЮЗ 5 н/о н/о +31.8 0.0 13 +29 +29 жарко 1009.7 1003.9
14 12.11 СЗ 4 н/о н/о +25.8 +14.6 50 +28 +28 жарко 1011.4 1005.6
13 12.11 ЮЗ 8 н/о н/о +30.5 +6.4 22 +29 +29 жарко 1010.1 1004.3
15 12.11 ЮВ 4 н/о н/о +24.9 +5.9 29 +29 +29 душно 1009.3 1003.5
16 12.11 СВ 5 н/о н/о +24.2 +18.6 71 +29 +29 душно 1008.9 1003.1
17 12.11 СВ 4 н/о н/о +24.9 +16.3 59 +28 +28 жарко 1009.3 1003.5
18 12.11 С 7 н/о н/о +25.9 +12.7 44 +28 +28 жарко 1009.7 1003.9
20 12.11 С 3 н/о н/о +23.4 +15.7 62 +28 +28 душно 1010.2 1004.4
19 12.11 С 4 н/о н/о +24.9 +13.8 50 +27 +27 жарко 1010.3 1004.5
21 12.11 СВ 3 н/о н/о +24.4 +15.3 57 +27 +27 жарко 1010.4 1004.6
22 12.11 С 3 н/о н/о +25.5 +14.9 52 +28 +28 жарко 1011.4 1005.6
23 12.11 СЗ 5 н/о н/о +26.3 +15.0 50 +29 +29 жарко 1011.9 1006.1
00 13.11 С 7 н/о н/о +26.5 +17.0 56 +30 +30 душно 1012.4 1006.6
02 13.11 С 7 н/о н/о +29.3 +14.3 40 +31 +31 жарко 1012.0 1006.2
01 13.11 С 7 н/о н/о +26.7 +16.0 52 +30 +30 душно 1012.6 1006.8
03 13.11 С 5 н/о н/о +30.1 +13.8 37 +32 +32 жарко 1010.8 1005.0
04 13.11 СВ 2 н/о н/о +31.2 +11.1 29 +31 +31 жарко 1010.0 1004.2
05 13.11 В 1 н/о н/о +32.0 +10.7 27 +32 +32 жарко 1009.2 1003.4
06 13.11 В 4 н/о н/о +32.3 +10.9 27 +32 +32 жарко 1008.8 1003.0
08 13.11 С 6 н/о н/о +30.2 +13.0 35 +31 +31 жарко 1009.4 1003.6
07 13.11 В 5 н/о н/о +29.9 +12.3 34 +31 +31 жарко 1009.3 1003.5
09 13.11 С 8 н/о н/о +27.5 +16.5 51 +31 +31 душно 1010.1 1004.3
10 13.11 СВ 5 н/о н/о +26.2 +17.3 58 +30 +30 душно 1011.5 1005.7
11 13.11 В 5 н/о н/о +25.6 +17.5 61 +30 +30 душно 1012.0 1006.2
12 13.11 В 2 н/о н/о +23.8 +18.2 71 +28 +28 душно 1012.6 1006.8
14 13.11 С 3 н/о н/о +23.1 +19.3 79 +29 +29 очень
душно
1012.9 1007.1
13 13.11 СВ 1 н/о н/о +23.7 +17.4 68 +28 +28 душно 1012.8 1007.0
15 13.11 штиль 0 н/о н/о +22.2 +18.8 81 +28 +28 душно 1012.5 1006.7
16 13.11 В 1 н/о н/о +21.0 +20.2 95 +27 +27 душно 1011.9 1006.1
17 13.11 Ю 4 н/о н/о +20.6 +19.8 95 +25 +25 комфорт 1012.0 1006.2
18 13.11 Ю 3 н/о н/о +21.3 +19.8 91 +26 +26 душно 1012.0 1006.2
20 13.11 Ю 3 н/о н/о +18.8 +17.3 91 +20 +20 1013.4 1007.6
19 13.11 Ю 5 н/о н/о +19.6 +17.6 88 +22 +22 комфорт 1012.9 1007.1
21 13.11 Ю 5 н/о н/о +20.4 +14.7 70 +23 +23 комфорт 1014.0 1008.2
22 13.11 Ю 8 н/о н/о +22.5 +14.1 59 +26 +26 жарко 1014.8 1009.0
23 13.11 Ю 7 н/о н/о +24.8 +14.0 51 +27 +27 жарко 1015.3 1009.5
00 14.11 Ю 6 н/о н/о +27.2 +13.5 43 +29 +29 жарко 1015.5 1009.7
02 14.11 Ю 6 н/о н/о +31.1 +12.9 33 +32 +32 жарко 1015.2 1009.4
01 14.11 Ю 7 н/о н/о +29.5 +12.9 36 +31 +31 жарко 1015.5 1009.7
03 14.11 ЮЗ 5 н/о н/о +31.6 +12.9 32 +32 +32 жарко 1014.8 1009.0
04 14.11 ЮЗ 6 н/о н/о +33.0 +12.1 28 +33 +33 жарко 1014.3 1008.5
05 14.11 Ю 7 н/о н/о +33.3 +11.8 27 +33 +33 жарко 1013.7 1007.9
06 14.11 ЮЗ 8 н/о н/о +34.4 +11.5 25 +34 +34 очень
жарко
1013.4 1007.6
08 14.11 Ю 7 н/о н/о +32.7 +10.7 26 +32 +32 жарко 1013.7 1007.9
07 14.11 Ю 8 н/о н/о +33.3 +11.2 26 +33 +33 жарко 1013.5 1007.7
09 14.11 Ю 7 н/о н/о +31.1 +9.9 27 +31 +31 жарко 1014.4 1008.6
10 14.11 Ю 6 н/о н/о +29.4 +8.5 27 +29 +29 жарко 1015.1 1009.3
11 14.11 Ю 5 н/о н/о +27.6 +7.5 28 +27 +27 жарко 1015.5 1009.7
12 14.11 Ю 5 н/о н/о +26.3 +6.9 29 +26 +26 жарко 1016.3 1010.5
14 14.11 Ю 8 н/о н/о +24.1 +7.3 34 +24 +24 комфорт 1016.7 1010.9
13 14.11 Ю 8 н/о н/о +25.4 +6.6 30 +25 +25 комфорт 1016.7 1010.9
15 14.11 Ю 9 н/о н/о +23.3 +7.8 37 +24 +24 комфорт 1016.4 1010.6
16 14.11 Ю 9 н/о н/о +21.9 +8.1 41 +23 +23 комфорт 1016.3 1010.5
17 14.11 Ю 9 н/о н/о +20.9 +7.9 43 +22 +22 комфорт 1016.5 1010.7
18 14.11 Ю 7 н/о н/о +20.0 +7.7 45 +21 +21 комфорт 1017.0 1011.2
20 14.11 Ю 5 н/о н/о +19.0 +9.5 54 +19 +19 1018.5 1012.7
19 14.11 Ю 6 н/о н/о +19.3 +8.9 51 +20 +20 1017.4 1011.6
21 14.11 Ю 7 н/о н/о +20.7 +9.3 48 +22 +22 комфорт 1018.9 1013.1
22 14.11 Ю 7 н/о н/о +23.5 +8.4 38 +24 +24 комфорт 1019.8 1013.9
23 14.11 Ю 6 н/о н/о +26.3 +8.8 33 +27 +27 жарко 1020.2 1014.3
00 15.11 ЮВ 6 н/о н/о +27.6 +9.0 31 +28 +28 жарко 1020.1 1014.2
02 15.11 ЮВ 3 н/о н/о +30.4 +8.7 26 +30 +30 жарко 1019.3 1013.4
01 15.11 ЮВ 4 н/о н/о +28.6 +8.8 29 +28 +28 жарко 1020.0 1014.1
03 15.11 ЮЗ 4 н/о н/о +31.9 +8.2 23 +31 +31 жарко 1018.2 1012.4
04 15.11 ЮЗ 5 н/о н/о +33.7 +6.1 18 +32 +32 жарко 1017.4 1011.6
05 15.11 Ю 4 н/о н/о +34.0 +6.3 18 +32 +32 жарко 1016.7 1010.9
06 15.11 ЮЗ 7 н/о н/о +34.2 +5.7 17 +32 +32 жарко 1016.2 1010.4
08 15.11 Ю 7 н/о н/о +32.7 -0.4 12 +29 +29 жарко 1016.3 1010.5
07 15.11 Ю 7 н/о н/о +33.2 +2.1 14 +30 +30 жарко 1016.1 1010.3
09 15.11 Ю 7 н/о н/о +30.8 +1.2 15 +28 +28 жарко 1016.9 1011.1
10 15.11 Ю 6 н/о н/о +28.8 +1.3 17 +27 +27 жарко 1017.3 1011.5
11 15.11 Ю 5 н/о н/о +26.7 +1.2 19 +25 +25 комфорт 1017.9 1012.1
12 15.11 Ю 5 н/о н/о +25.6 +1.0 20 +24 +24 комфорт 1018.2 1012.4
14 15.11 ЮВ 4 н/о н/о +20.7 0.0 25 +21 +21 комфорт 1018.0 1012.2
13 15.11 Ю 4 н/о н/о +23.3 +0.4 22 +22 +22 комфорт 1018.3 1012.5
15 15.11 Ю 5 н/о н/о +21.7 +2.4 28 +22 +22 комфорт 1017.4 1011.6
16 15.11 Ю 5 н/о н/о +20.4 +3.2 32 +21 +21 комфорт 1016.7 1010.9
17 15.11 ЮВ 4 н/о н/о +18.9 +3.1 35 +19 +19 1016.5 1010.7
18 15.11 ЮВ 5 н/о н/о +18.5 +3.9 38 +18 +18 1016.6 1010.8
20 15.11 Ю 5 н/о н/о +18.4 +4.6 40 +18 +18 1018.0 1012.2
19 15.11 Ю 5 н/о н/о +18.9 +4.7 39 +19 +19 1017.2 1011.4
21 15.11 Ю 4 н/о н/о +22.1 +4.7 32 +22 +22 комфорт 1018.7 1012.9
22 15.11 ЮВ 5 н/о н/о +25.3 +3.9 25 +24 +24 комфорт 1019.4 1013.5
23 15.11 В 2 н/о н/о +26.9 +4.0 23 +26 +26 жарко 1019.9 1014.0
00 16.11 В 4 н/о н/о +28.6 +4.8 22 +27 +27 жарко 1019.4 1013.5
02 16.11 З 3 н/о н/о +31.9 +2.1 15 +29 +29 жарко 1017.7 1011.9
01 16.11 СВ 3 н/о н/о +30.3 +4.9 20 +28 +28 жарко 1018.6 1012.8
03 16.11 ЮЗ 4 н/о н/о +32.4 +2.5 15 +30 +30 жарко 1016.9 1011.1
04 16.11 СЗ 5 н/о н/о +34.1 +1.8 13 +31 +31 жарко 1016.0 1010.2
05 16.11 Ю 1 н/о н/о +34.5 -0.2 11 +31 +31 жарко 1014.8 1009.0
06 16.11 Ю 6 н/о н/о +34.5 -1.5 10 +31 +31 жарко 1014.2 1008.4
08 16.11 Ю 6 н/о н/о +33.3 -2.4 10 +30 +30 жарко 1014.5 1008.7
07 16.11 Ю 6 н/о н/о +34.6 -2.9 9 +31 +31 жарко 1014.3 1008.5
09 16.11 Ю 8 н/о н/о +32.0 -3.4 10 +28 +28 жарко 1015.0 1009.2
10 16.11 Ю 7 н/о н/о +29.6 -6.6 9 +26 +26 жарко 1015.9 1010.1
11 16.11 Ю 7 н/о н/о +28.1 -6.3 10 +25 +25 комфорт 1016.5 1010.7
12 16.11 Ю 9 н/о н/о +26.8 -7.3 10 +24 +24 комфорт 1017.1 1011.3
14 16.11 Ю 9 н/о н/о +24.4 -3.9 15 +22 +22 комфорт 1016.8 1011.0
13 16.11 Ю 9 н/о н/о +25.5 -7.1 11 +23 +23 комфорт 1017.0 1011.2
15 16.11 Ю 9 н/о н/о +23.8 +0.8 22 +23 +23 комфорт 1016.4 1010.6
16 16.11 Ю 7 н/о н/о +22.6 +2.1 26 +22 +22 комфорт 1016.1 1010.3
17 16.11 Ю 6 н/о н/о +21.0 +3.2 31 +21 +21 комфорт 1016.1 1010.3
18 16.11 Ю 6 н/о н/о +19.8 +3.1 33 +20 +20 1016.4 1010.6
20 16.11 Ю 6 н/о н/о +18.8 -1.1 26 +18 +18 1017.5 1011.7
19 16.11 Ю 6 н/о н/о +19.0 +0.1 28 +19 +19 1016.6 1010.8
21 16.11 Ю 7 н/о н/о +21.2 -0.7 23 +21 +21 комфорт 1018.1 1012.3
22 16.11 Ю 8 н/о н/о +24.1 -0.2 20 +23 +23 комфорт 1018.3 1012.5
23 16.11 ЮВ 7 н/о н/о +25.7 -0.4 18 +24 +24 комфорт 1018.5 1012.7
00 17.11 ЮВ 6 н/о н/о +27.9 -0.2 16 +26 +26 жарко 1018.5 1012.7
02 17.11 В 3 н/о н/о +31.9 -1.0 12 +29 +29 жарко 1017.4 1011.6
01 17.11 ЮВ 3 н/о н/о +29.6 +0.2 15 +27 +27 жарко 1018.2 1012.4
03 17.11 З 3 н/о н/о +31.8 -4.9 9 +28 +28 жарко 1016.3 1010.5
04 17.11 ЮЗ 3 н/о н/о +32.5 -4.4 9 +29 +29 жарко 1015.3 1009.5
05 17.11 Ю 5 н/о н/о +33.3 -3.8 9 +29 +29 жарко 1014.1 1008.3
06 17.11 ЮЗ 5 н/о н/о +33.7 -5.1 8 +30 +30 жарко 1013.6 1007.8
08 17.11 ЮЗ 5 н/о н/о +32.9 -5.7 8 +29 +29 жарко 1013.2 1007.4
07 17.11 ЮЗ 4 н/о н/о +33.0 -5.6 8 +29 +29 жарко 1013.3 1007.5
09 17.11 Ю 6 н/о н/о +31.7 -6.6 8 +28 +28 жарко 1013.8 1008.0
10 17.11 Ю 6 н/о н/о +29.3 -6.8 9 +26 +26 жарко 1014.5 1008.7
11 17.11 ЮЗ 5 н/о н/о +26.7 -7.4 10 +24 +24 комфорт 1014.8 1009.0
12 17.11 В 6 н/о н/о +23.7 -6.3 13 +22 +22 комфорт 1015.5 1009.7
14 17.11 В 3 н/о н/о +21.1 -6.5 15 +20 +20 1015.1 1009.3
13 17.11 ЮВ 3 н/о н/о +23.2 -5.7 14 +21 +21 комфорт 1015.6 1009.8
15 17.11 ЮВ 3 н/о н/о +21.1 -5.7 16 +20 +20 1014.4 1008.6
16 17.11 Ю 4 н/о н/о +19.7 -5.3 18 +20 +20 1013.8 1008.0
17 17.11 Ю 4 н/о н/о +19.5 -4.0 20 +19 +19 1013.4 1007.6
18 17.11 ЮВ 4 н/о н/о +16.9 -5.5 21 +17 +17 1013.5 1007.7
20 17.11 ЮВ 5 н/о н/о +16.7 -3.4 25 +16 +16 1014.2 1008.4
19 17.11 Ю 4 н/о н/о +16.5 -4.1 24 +16 +16 1013.6 1007.8

 

Местоположение метеостанции Marree Aero (Южная Австралия, Австралия): широта -29.66 долгота 138.06 высота над уровнем моря 51 м.

В архиве по умолчанию представлена погода в Marree Aero за последнюю неделю. Архивные данные за месяц целиком и за предыдущие месяцы, начиная с января 2011 года, Вы можете получить, выбрав интересующий диапазон дат из раскрывающегося списка и нажав кнопку "Ввод!".


*Определитесь, кто Вы:
робот инопланетянин человек

Внимание! Время в таблицах - всемирное. Для получения местного времени необходимо прибавить поправку, которая в Marree Aero равна 9.5 ч.

Смотрите также архив погоды в соседних городах и на ближайших метеорологических станциях:

Погода в Leigh Creek Airport (Южная Австралия, Австралия) (110 км)
Погода в Olympic Dam Aerodrome (Южная Австралия, Австралия) (146 км)
Погода в Woomera Aerodrome (Южная Австралия, Австралия) (205 км)
Погода в Moomba Airport (Южная Австралия, Австралия) (271 км)
Погода в Port Augusta Arid Lands (Южная Австралия, Австралия) (320 км)
Погода в Coober Pedy Airport (Южная Австралия, Австралия) (332 км)
Погода в Oodnadatta Airport (Южная Австралия, Австралия) (346 км)
Погода в Yunta Airstrip (Южная Австралия, Австралия) (354 км)
Погода в Tarcoola Aero (Южная Австралия, Австралия) (355 км)
Погода в Whyalla Airport (Южная Австралия, Австралия) (383 км)

Пояснения к столбцам:

Ветер - указаны скорость ветра в м/с - средняя за 10 мин, порывы в срок и между сроками (в фигурных скобках) и направление, откуда дует ветер: С - северный, СВ - северо-восточный, В - восточный, ЮВ - юго-восточный, Ю - южный, ЮЗ - юго-западный, З - западный, СЗ - северо-западный.
Видимость - горизонтальная дальность видимости в метрах или километрах. При видимости от 1 до 10 км при отсутствии осадков обычно наблюдается дымка, при ухудшении видимости до 1 км и менее - туман. В сухую погоду видимость может ухудшаться дымом, пылью или мглою.
Явления - указаны атмосферные явления, наблюдавшиеся в срок или в последний час перед сроком; фигурными скобками обозначены явления, наблюдавшиеся между сроками (за 1-3 часа до срока); квадратными скобками обозначены град или гололедные отложения с указанием их диаметра в мм.
Облачность - указаны через наклонную черту общая и нижняя облачность в баллах и высота нижней границы облаков в метрах; квадратными скобками обозначены формы облаков: Ci - перистые, Cs - перисто-слоистые, Cc - перисто-кучевые, Ac - высококучевые, As - высокослоистые, Sc - слоисто-кучевые, Ns - слоисто-дождевые, Cu - кучевые, Cb - кучево-дождевые. Подробнее классификацию облаков см. в Атласе облаков (PDF).
T - Температура воздуха - температура, измеренная на высоте 2 м над землей.
Td - Температура точки росы - температура, при понижении до которой содержащийся в воздухе водяной пар достигнет насыщения.
f - Относительная влажность воздуха - влажноcть воздуха, измеренная на высоте 2 м над землей.
Te - Эффективная температура - температура, которую ощущает одетый по сезону человек в тени. Характеристика душности погоды. При расчете учитывается влияние влажности воздуха и скорости ветра на теплоощущения человека.
Tes - Эффективная температура на солнце - температура, которую ощущает человек, с поправкой на солнечный нагрев. Характеристика знойности погоды. Зависит от высоты солнца над горизонтом, облачности и скорости ветра. Ночью, в пасмурную погоду, а также при ветре 12 м/с и более поправка равна нулю.
P - Атмосферное давление - приведенное к уровню моря атмосферное давление.
Po - Атмосферное давление - измеренное на уровне метеостанции атмосферное давление.
Tmin - Минимальная температура - минимум температуры воздуха на высоте 2 м над землей.
Tmax - Максимальная температура - максимум температуры воздуха на высоте 2 м над землей.
R - Количество осадков - Количество выпавших осадков за период времени, мм. При наведении курсора мыши на число - период времени, за который выпало указанное количество осадков.
R24 - Количество осадков - Количество выпавших осадков за 24 часа, мм.
S - Снежный покров - Высота снежного покрова, см. При наведении курсора мыши на число - состояние снежного покрова и степень покрытия местности в баллах.